Tracking 21679 objects as of 30-Oct-2020
HD Live streaming from Space Station
objects crossing your sky now

ZHEDA PIXING 1C

Track ZHEDA PIXING 1C now!
10-day predictions
ZHEDA PIXING 1C is classified as:


NORAD ID: 37167
Int'l Code: 2010-047C
Perigee: 617.5 km
Apogee: 650.1 km
Inclination: 97.7 °
Period: 97.2 minutes
Semi major axis: 7004 km
RCS: 0.149 m2 (medium)
Launch date: September 22, 2010
Source: People's Republic of China (PRC)
Launch site: Jiuquan Satellite Launch Center, China (JSC)
aabbcc
Your satellite tracking list
Your tracking list is empty




NASA's NSSDC Master Catalog

Two Line Element Set (TLE):
1 37167U 10047C   20304.40175497  .00000210  00000-0  33643-4 0  9998
2 37167  97.7190 286.2072 0023333 171.5951 188.5665 14.80845085545724
Source of the keplerian elements: AFSPC